FW7622 Weather Reports


Display with metric or nautical units.
time (UTC)temp
F
wind
direction
speed
MPH
gust
MPH
rain 1hr
in
rain 24hr
in
rain mn
in
humidity
%
barometer
mb
20260906040004 64 164 0.0 0.0 0.00 0.00 0.00 99 1018.0
20260906035459 64 182 0.0 0.0 0.00 0.00 0.00 99 1017.7
20260906034955 64 182 0.0 0.0 0.00 0.00 0.00 99 1017.7
20260906034454 64 183 0.0 0.0 0.00 0.00 0.00 99 1018.0
20260906033949 64 184 0.0 0.0 0.00 0.00 0.00 99 1018.0
20260906033444 64 181 0.0 0.0 0.00 0.00 0.00 99 1017.7
20260906032940 64 172 0.0 0.0 0.00 0.00 0.00 99 1017.7
20260906032437 64 172 0.0 0.0 0.00 0.00 0.00 99 1017.7
20260906031931 64 171 0.0 0.0 0.00 0.00 0.00 99 1017.7
20260906031426 64 171 0.0 0.0 0.00 0.00 0.00 99 1017.7
20260906030921 64 172 0.0 0.0 0.00 0.00 0.00 99 1017.7
20260906030416 64 171 0.0 0.0 0.00 0.00 0.00 99 1017.4
20260906025910 64 170 0.0 0.0 0.00 0.00 0.00 99 1017.7
20260906025405 65 160 0.0 0.0 0.00 0.00 0.00 99 1017.4
20260906024904 65 167 0.0 0.0 0.00 0.00 0.00 99 1017.4
20260906024403 65 171 0.0 0.0 0.00 0.00 0.00 99 1017.7
20260906023859 66 170 0.0 0.0 0.00 0.00 0.00 99 1017.4
20260906023355 66 170 0.0 0.0 0.00 0.00 0.00 99 1017.4
20260906022854 66 170 0.0 0.0 0.00 0.00 0.00 99 1017.4
20260906022349 66 164 0.0 0.0 0.00 0.00 0.00 99 1017.0
20260906021845 66 167 0.0 0.0 0.00 0.00 0.00 99 1017.0
20260906021344 67 165 0.0 0.0 0.00 0.00 0.00 99 1016.7
20260906020839 67 165 0.0 0.0 0.00 0.00 0.00 99 1016.7
20260906020339 67 153 0.0 0.0 0.00 0.00 0.00 99 1016.3
20260906015834 67 162 0.0 0.0 0.00 0.00 0.00 99 1016.3
20260906015333 67 169 0.0 0.0 0.00 0.00 0.00 99 1016.3
20260906014833 68 169 0.0 0.0 0.00 0.00 0.00 99 1016.3
20260906014327 68 167 0.0 0.0 0.00 0.00 0.00 99 1016.3
20260906013824 68 167 0.0 0.0 0.00 0.00 0.00 99 1016.0
20260906013319 69 172 0.0 0.0 0.00 0.00 0.00 99 1015.7
20260906012815 69 172 0.0 0.0 0.00 0.00 0.00 99 1015.7
20260906012315 69 174 0.0 0.0 0.00 0.00 0.00 99 1015.7
20260906011809 69 174 0.0 0.0 0.00 0.00 0.00 99 1015.7
20260906011304 69 172 0.0 0.0 0.00 0.00 0.00 99 1015.3
20260906010800 70 155 0.0 0.0 0.00 0.00 0.00 99 1015.7
20260906010256 70 148 0.0 1.0 0.00 0.00 0.00 99 1015.7
20260906005751 71 168 0.0 0.0 0.00 0.00 0.00 98 1015.7
20260906005250 71 169 0.0 0.0 0.00 0.00 0.00 98 1015.7
20260906004749 71 157 0.0 0.0 0.00 0.00 0.00 98 1015.7
20260906004244 71 181 0.0 0.0 0.00 0.00 0.00 97 1015.7
20260906003739 72 181 0.0 0.0 0.00 0.00 0.00 97 1015.7
20260906003234 72 181 0.0 0.0 0.00 0.00 0.00 96 1016.0
20260906002735 73 181 0.0 0.0 0.00 0.00 0.00 95 1016.0
20260906002234 73 181 0.0 0.0 0.00 0.00 0.00 94 1015.7
20260906001730 74 179 0.0 0.0 0.00 0.00 0.00 94 1015.7
20260906001225 74 182 0.0 0.0 0.00 0.00 0.00 93 1015.7
20260906000721 74 169 0.0 0.0 0.00 0.00 0.00 92 1015.7
20260906000215 75 177 0.0 0.0 0.00 0.00 0.00 92 1015.7
20260905235715 75 168 0.0 0.0 0.00 0.00 0.00 91 1015.7
20260905235210 75 182 0.0 0.0 0.00 0.00 0.00 90 1015.7
20260905234706 76 144 0.0 0.0 0.00 0.00 0.00 89 1015.7
20260905234201 77 141 0.0 0.0 0.00 0.00 0.00 88 1015.7
20260905233656 77 129 1.0 2.0 0.00 0.00 0.00 87 1016.0
20260905233155 77 165 0.0 0.0 0.00 0.00 0.00 87 1016.0
20260905232650 77 177 0.0 0.0 0.00 0.00 0.00 87 1015.7
20260905232146 77 180 0.0 0.0 0.00 0.00 0.00 87 1015.7
20260905231641 78 195 0.0 1.0 0.00 0.00 0.00 84 1015.7
20260905231137 78 164 0.0 0.0 0.00 0.00 0.00 85 1015.7
20260905230633 78 173 0.0 0.0 0.00 0.00 0.00 84 1015.7
20260905230131 79 172 0.0 0.0 0.00 0.00 0.00 84 1015.7
20260905225630 79 185 0.0 0.0 0.00 0.00 0.00 82 1015.7
20260905225126 79 171 0.0 1.0 0.00 0.00 0.00 81 1016.0
20260905224625 79 180 0.0 0.0 0.00 0.00 0.00 82 1015.7
20260905224125 80 178 0.0 0.0 0.00 0.00 0.00 81 1016.0
20260905223622 80 169 1.0 1.0 0.00 0.00 0.00 80 1015.7
20260905223118 81 175 1.0 1.0 0.00 0.00 0.00 80 1015.7
20260905222619 81 165 1.0 2.0 0.00 0.00 0.00 79 1016.0
20260905222114 81 164 0.0 1.0 0.00 0.00 0.00 79 1016.0
20260905221609 80 178 0.0 1.0 0.00 0.00 0.00 80 1016.0
20260905221106 81 191 0.0 1.0 0.00 0.00 0.00 78 1016.0
20260905220601 79 198 0.0 0.0 0.00 0.00 0.00 82 1016.0
20260905220057 78 165 0.0 0.0 0.00 0.00 0.00 84 1016.0
20260905215556 80 172 0.0 1.0 0.00 0.00 0.00 82 1016.3
20260905215052 80 186 0.0 1.0 0.00 0.00 0.00 81 1016.3
20260905214548 81 166 0.0 0.0 0.00 0.00 0.00 81 1016.3
20260905214043 82 195 0.0 1.0 0.00 0.00 0.00 76 1016.3
20260905213538 81 180 0.0 0.0 0.00 0.00 0.00 81 1016.3
20260905213033 81 204 0.0 1.0 0.00 0.00 0.00 77 1016.3
20260905212528 80 221 1.0 1.0 0.00 0.00 0.00 81 1016.7
20260905212028 79 139 1.0 1.0 0.00 0.00 0.00 86 1016.3
20260905211523 79 174 0.0 1.0 0.00 0.00 0.00 86 1016.7
20260905211019 79 166 0.0 0.0 0.00 0.00 0.00 83 1016.7
20260905210515 79 161 1.0 1.0 0.00 0.00 0.00 82 1016.3
20260905210014 80 168 1.0 1.0 0.00 0.00 0.00 82 1016.3
20260905205509 82 168 1.0 2.0 0.00 0.00 0.00 78 1016.7
20260905205008 81 178 0.0 0.0 0.00 0.00 0.00 79 1016.7
20260905204503 80 184 0.0 0.0 0.00 0.00 0.00 82 1016.7
20260905204003 79 198 0.0 1.0 0.00 0.00 0.00 82 1016.7
20260905203458 80 187 0.0 0.0 0.00 0.00 0.00 83 1016.7
20260905202953 80 176 0.0 1.0 0.00 0.00 0.00 81 1017.0
20260905202448 82 210 1.0 1.0 0.00 0.00 0.00 77 1017.0
20260905201944 83 203 1.0 1.0 0.00 0.00 0.00 74 1017.0
20260905201439 84 200 1.0 1.0 0.00 0.00 0.00 75 1017.4
20260905200938 83 189 1.0 1.0 0.00 0.00 0.00 79 1017.0
20260905200435 82 233 0.0 1.0 0.00 0.00 0.00 78 1017.4
20260905195933 83 179 0.0 0.0 0.00 0.00 0.00 80 1017.4
20260905195428 83 202 1.0 1.0 0.00 0.00 0.00 78 1017.0
20260905194924 80 185 0.0 0.0 0.00 0.00 0.00 80 1017.0
20260905194423 80 63 2.0 2.0 0.00 0.00 0.00 79 1017.0
20260905193923 79 188 0.0 0.0 0.00 0.00 0.00 83 1017.0
20260905193418 80 150 1.0 1.0 0.00 0.00 0.00 82 1017.0
20260905192913 80 201 0.0 0.0 0.00 0.00 0.00 80 1017.4
20260905192409 79 232 1.0 1.0 0.00 0.00 0.00 84 1017.4
20260905191909 78 188 0.0 0.0 0.00 0.00 0.00 85 1017.0
20260905191408 77 171 0.0 0.0 0.00 0.00 0.00 85 1017.0
20260905190902 78 164 1.0 1.0 0.00 0.00 0.00 84 1017.4
20260905190354 78 121 0.0 1.0 0.00 0.00 0.00 83 1017.0
20260905185853 78 157 1.0 1.0 0.00 0.00 0.00 84 1017.0
20260905185349 78 184 0.0 0.0 0.00 0.00 0.00 86 1017.4
20260905184848 78 166 0.0 0.0 0.00 0.00 0.00 86 1017.0
20260905184347 78 170 0.0 0.0 0.00 0.00 0.00 83 1017.4
20260905183845 78 165 0.0 0.0 0.00 0.00 0.00 83 1017.0
20260905183341 78 171 0.0 0.0 0.00 0.00 0.00 84 1017.0
20260905182836 78 160 1.0 1.0 0.00 0.00 0.00 85 1016.7
20260905182335 78 184 0.0 0.0 0.00 0.00 0.00 85 1017.0
20260905181831 77 182 0.0 0.0 0.00 0.00 0.00 87 1017.0
20260905181330 77 184 0.0 1.0 0.00 0.00 0.00 87 1017.4
20260905180830 77 264 2.0 2.0 0.00 0.00 0.00 86 1017.7
20260905180325 77 161 1.0 1.0 0.00 0.00 0.00 86 1017.7
20260905175819 77 121 2.0 2.0 0.00 0.00 0.00 85 1017.7
20260905175314 77 186 1.0 1.0 0.00 0.00 0.00 85 1017.7
20260905174809 77 190 0.0 1.0 0.00 0.00 0.00 85 1017.7
20260905174305 77 172 0.0 0.0 0.00 0.00 0.00 89 1017.7
20260905173801 76 174 1.0 1.0 0.00 0.00 0.00 86 1017.7
20260905173257 76 40 2.0 2.0 0.00 0.00 0.00 89 1017.7
20260905172756 76 174 0.0 1.0 0.00 0.00 0.00 87 1017.7
20260905172254 75 175 1.0 2.0 0.00 0.00 0.00 90 1017.7
20260905171751 75 176 0.0 0.0 0.00 0.00 0.00 90 1017.7
20260905171248 75 162 0.0 0.0 0.00 0.00 0.00 92 1017.7
20260905170743 75 184 0.0 0.0 0.00 0.00 0.00 93 1017.7
20260905170239 74 181 0.0 0.0 0.00 0.00 0.00 94 1017.7
20260905165738 74 191 0.0 1.0 0.00 0.00 0.00 94 1017.7
20260905165234 73 205 0.0 1.0 0.00 0.00 0.00 95 1017.7
20260905164733 74 179 0.0 0.0 0.00 0.00 0.00 95 1017.7
20260905164228 73 168 1.0 1.0 0.00 0.00 0.00 95 1017.7
20260905163725 73 176 0.0 0.0 0.00 0.00 0.00 96 1017.7
20260905163220 73 158 0.0 0.0 0.00 0.00 0.00 96 1017.7
20260905162716 73 184 0.0 0.0 0.00 0.00 0.00 96 1017.7
20260905162216 73 153 1.0 1.0 0.00 0.00 0.00 96 1017.7
20260905161711 73 173 1.0 1.0 0.00 0.00 0.00 97 1018.0
20260905161209 73 181 0.0 1.0 0.00 0.00 0.00 97 1017.7
20260905160702 73 138 1.0 2.0 0.00 0.00 0.00 96 1017.7
20260905160202 73 175 0.0 0.0 0.00 0.00 0.00 97 1018.0
20260905155656 72 176 0.0 0.0 0.00 0.00 0.00 97 1017.7
20260905155155 72 186 0.0 0.0 0.00 0.00 0.00 97 1017.7
20260905154649 72 170 0.0 0.0 0.00 0.00 0.00 98 1017.7
20260905154145 72 177 0.0 0.0 0.00 0.00 0.00 97 1017.7
20260905153641 73 175 0.0 0.0 0.00 0.00 0.00 98 1017.7
20260905153136 72 192 0.0 0.0 0.00 0.00 0.00 98 1017.7
20260905152631 72 153 0.0 0.0 0.00 0.00 0.00 98 1017.7
20260905152126 72 213 0.0 1.0 0.00 0.00 0.00 98 1017.7
20260905151620 72 188 0.0 0.0 0.00 0.00 0.00 98 1017.4
20260905151116 72 172 0.0 0.0 0.00 0.00 0.00 99 1017.7
20260905150611 72 139 1.0 1.0 0.00 0.00 0.00 99 1017.4
20260905150110 71 186 0.0 0.0 0.00 0.00 0.00 99 1017.4
20260905145609 71 156 0.0 0.0 0.00 0.00 0.00 99 1017.4
20260905145108 71 197 1.0 1.0 0.00 0.00 0.00 99 1017.7
20260905144603 71 173 0.0 0.0 0.00 0.00 0.00 99 1017.0
20260905144102 71 154 1.0 1.0 0.00 0.00 0.00 99 1017.0
20260905143602 71 170 1.0 1.0 0.00 0.00 0.00 99 1017.4
20260905143057 71 177 0.0 0.0 0.00 0.00 0.00 99 1017.4
20260905142556 71 167 0.0 0.0 0.00 0.00 0.00 99 1017.4
20260905142055 70 167 0.0 0.0 0.00 0.00 0.00 99 1017.4
20260905141550 70 200 0.0 0.0 0.00 0.00 0.00 99 1017.4
20260905141047 70 171 0.0 1.0 0.00 0.00 0.00 99 1017.0
20260905140542 70 147 0.0 1.0 0.00 0.00 0.00 99 1016.7
20260905140041 70 163 0.0 1.0 0.00 0.00 0.00 99 1016.7
20260905135537 70 168 0.0 1.0 0.00 0.00 0.00 99 1016.7
20260905135036 70 172 0.0 0.0 0.00 0.00 0.00 99 1016.7
20260905134531 70 179 0.0 0.0 0.00 0.00 0.00 99 1016.7
20260905134030 69 115 1.0 1.0 0.00 0.00 0.00 99 1016.7
20260905133526 69 180 0.0 0.0 0.00 0.00 0.00 99 1016.7
20260905133025 69 171 0.0 0.0 0.00 0.00 0.00 99 1016.3
20260905132525 69 116 1.0 1.0 0.00 0.00 0.00 99 1016.3
20260905132020 69 168 0.0 1.0 0.00 0.00 0.00 99 1016.3
20260905131515 69 165 0.0 0.0 0.00 0.00 0.00 99 1016.0
20260905131010 69 142 1.0 1.0 0.00 0.00 0.00 99 1016.0
20260905130509 69 131 2.0 2.0 0.00 0.00 0.00 99 1016.0
20260905130005 69 167 0.0 1.0 0.00 0.00 0.00 99 1016.0
20260905125459 69 172 0.0 0.0 0.00 0.00 0.00 99 1016.0
20260905124954 68 110 1.0 1.0 0.00 0.00 0.00 99 1015.7
20260905124451 68 162 0.0 1.0 0.00 0.00 0.00 99 1016.0
20260905123946 68 164 0.0 0.0 0.00 0.00 0.00 99 1016.3
20260905123442 68 182 0.0 1.0 0.00 0.00 0.00 99 1016.0
20260905122937 68 150 1.0 1.0 0.00 0.00 0.00 99 1016.3
20260905122437 68 174 0.0 1.0 0.00 0.00 0.00 99 1015.7
20260905121932 68 131 1.0 1.0 0.00 0.00 0.00 99 1016.0
20260905121428 68 157 0.0 0.0 0.00 0.00 0.00 99 1016.0
20260905120926 68 152 0.0 0.0 0.00 0.00 0.00 99 1016.0
20260905120421 68 154 0.0 1.0 0.00 0.00 0.00 99 1016.0
20260905115917 68 143 0.0 0.0 0.00 0.00 0.00 99 1015.7
20260905115416 68 191 0.0 0.0 0.00 0.00 0.00 99 1015.7
20260905114911 68 174 0.0 0.0 0.00 0.00 0.00 99 1016.0
20260905114410 68 181 0.0 0.0 0.00 0.00 0.00 99 1016.0
20260905113909 68 187 0.0 0.0 0.00 0.00 0.00 99 1015.7
20260905113405 68 193 0.0 0.0 0.00 0.00 0.00 99 1016.0
20260905112900 68 181 0.0 0.0 0.00 0.00 0.00 99 1015.7
20260905112355 68 174 0.0 0.0 0.00 0.00 0.00 99 1015.7
20260905111851 68 176 0.0 0.0 0.00 0.00 0.00 99 1015.7
20260905111350 68 142 0.0 1.0 0.00 0.00 0.00 99 1015.7
20260905110850 68 170 1.0 1.0 0.00 0.00 0.00 99 1015.3
20260905110344 68 174 0.0 0.0 0.00 0.00 0.00 99 1015.3
20260905105839 68 166 0.0 0.0 0.00 0.00 0.00 99 1015.0
20260905105339 67 152 0.0 0.0 0.00 0.00 0.00 99 1015.0
20260905104833 67 173 0.0 0.0 0.00 0.00 0.00 99 1014.5
20260905104330 67 171 0.0 0.0 0.00 0.00 0.00 99 1015.0
20260905103829 67 176 0.0 0.0 0.00 0.00 0.00 99 1015.0
20260905103324 67 176 0.0 0.0 0.00 0.00 0.00 99 1014.5
20260905102820 67 177 0.0 0.0 0.00 0.00 0.00 99 1015.0
20260905102317 67 176 0.0 0.0 0.00 0.00 0.00 99 1015.0
20260905101817 67 172 0.0 0.0 0.00 0.00 0.00 99 1015.0
20260905101315 67 178 0.0 0.0 0.00 0.00 0.00 99 1014.5
20260905100809 67 160 0.0 0.0 0.00 0.00 0.00 99 1014.5
20260905100305 67 173 0.0 1.0 0.00 0.00 0.00 99 1015.0
20260905095805 67 168 0.0 0.0 0.00 0.00 0.00 99 1015.0
20260905095259 67 173 0.0 0.0 0.00 0.00 0.00 99 1014.5
20260905094754 67 173 0.0 0.0 0.00 0.00 0.00 99 1014.5
20260905094249 67 171 0.0 0.0 0.00 0.00 0.00 99 1014.5
20260905093748 67 161 0.0 0.0 0.00 0.00 0.00 99 1015.0
20260905093244 67 174 0.0 0.0 0.00 0.00 0.00 99 1015.0
20260905092739 67 179 0.0 0.0 0.00 0.00 0.00 99 1015.0
20260905092235 67 170 0.0 0.0 0.00 0.00 0.00 99 1015.0
20260905091735 67 155 0.0 0.0 0.00 0.00 0.00 99 1015.0
20260905091229 67 151 0.0 0.0 0.00 0.00 0.00 99 1015.3
20260905090728 67 136 0.0 1.0 0.00 0.00 0.00 99 1015.3
20260905090225 67 165 0.0 0.0 0.00 0.00 0.00 99 1015.3
20260905085723 67 154 0.0 1.0 0.00 0.00 0.00 99 1015.3
20260905085219 67 170 0.0 0.0 0.00 0.00 0.00 99 1015.3
20260905084719 67 168 0.0 0.0 0.00 0.00 0.00 99 1015.3
20260905084218 67 187 0.0 1.0 0.00 0.00 0.00 99 1015.7
20260905083714 67 182 0.0 0.0 0.00 0.00 0.00 99 1015.3
20260905083210 67 167 0.0 1.0 0.00 0.00 0.00 99 1015.3
20260905082705 67 172 0.0 0.0 0.00 0.00 0.00 99 1015.3
20260905082201 67 171 0.0 0.0 0.00 0.00 0.00 99 1015.3
20260905081700 67 172 0.0 0.0 0.00 0.00 0.00 99 1015.7
20260905081156 67 179 0.0 0.0 0.00 0.00 0.00 99 1015.3
20260905080655 67 185 0.0 0.0 0.00 0.00 0.00 99 1015.3
20260905080155 67 173 0.0 0.0 0.00 0.00 0.00 99 1015.7
20260905075654 67 172 0.0 0.0 0.00 0.00 0.00 99 1015.3
20260905075153 67 138 0.0 0.0 0.00 0.00 0.00 99 1015.7
20260905074652 67 167 0.0 0.0 0.00 0.00 0.00 99 1015.3
20260905074148 67 171 0.0 0.0 0.00 0.00 0.00 99 1015.3
20260905073644 67 170 0.0 0.0 0.00 0.00 0.00 99 1015.3
20260905073140 67 177 0.0 0.0 0.00 0.00 0.00 99 1015.3
20260905072638 67 134 0.0 0.0 0.00 0.00 0.00 99 1015.3
20260905072134 67 174 0.0 1.0 0.00 0.00 0.00 99 1015.3
20260905071631 67 167 0.0 0.0 0.00 0.00 0.00 99 1015.3
20260905071126 67 169 0.0 0.0 0.00 0.00 0.00 99 1015.0
20260905070621 67 169 0.0 0.0 0.00 0.00 0.00 99 1015.3
20260905070117 67 173 0.0 0.0 0.00 0.00 0.00 99 1015.3
20260905065615 67 177 0.0 0.0 0.00 0.00 0.00 99 1015.0
20260905065110 67 164 0.0 0.0 0.00 0.00 0.00 99 1015.0
20260905064605 67 160 0.0 0.0 0.00 0.00 0.00 99 1015.0
20260905064101 67 171 0.0 0.0 0.00 0.00 0.00 99 1015.0
20260905063559 67 185 0.0 0.0 0.00 0.00 0.00 99 1015.0
20260905063056 67 185 0.0 0.0 0.00 0.00 0.00 99 1015.3
20260905062551 66 184 0.0 0.0 0.00 0.00 0.00 99 1015.0
20260905062050 66 172 0.0 0.0 0.00 0.00 0.00 99 1015.0
20260905061546 66 171 0.0 0.0 0.00 0.00 0.00 99 1015.0
20260905061044 66 179 0.0 0.0 0.00 0.00 0.00 99 1015.0
20260905060541 66 179 0.0 0.0 0.00 0.00 0.00 99 1015.0
20260905060037 66 176 0.0 0.0 0.00 0.00 0.00 99 1015.0
20260905055535 65 176 0.0 0.0 0.00 0.00 0.00 99 1015.0
20260905055030 65 176 0.0 0.0 0.00 0.00 0.00 99 1015.0
20260905054526 65 176 0.0 0.0 0.00 0.00 0.00 99 1015.0
20260905054021 65 176 0.0 0.0 0.00 0.00 0.00 99 1015.0
20260905053520 65 176 0.0 0.0 0.00 0.00 0.00 99 1014.5
20260905053017 65 175 0.0 0.0 0.00 0.00 0.00 99 1014.5
20260905052515 66 175 0.0 0.0 0.00 0.00 0.00 99 1014.5
20260905052010 66 176 0.0 0.0 0.00 0.00 0.00 99 1014.5
20260905051506 66 176 0.0 0.0 0.00 0.00 0.00 99 1014.2
20260905051003 67 176 0.0 0.0 0.00 0.00 0.00 99 1014.5
20260905050458 67 178 0.0 0.0 0.00 0.00 0.00 99 1014.5
20260905045955 66 174 0.0 0.0 0.00 0.00 0.00 99 1014.2
20260905045449 66 173 0.0 0.0 0.00 0.00 0.00 99 1014.2
20260905044944 67 174 0.0 0.0 0.00 0.00 0.00 99 1014.2
20260905044439 67 170 0.0 0.0 0.00 0.00 0.00 99 1014.2
20260905043939 67 171 0.0 0.0 0.00 0.00 0.00 99 1014.2
20260905043438 67 171 0.0 0.0 0.00 0.00 0.00 99 1014.2
20260905042932 67 171 0.0 0.0 0.00 0.00 0.00 99 1014.2
20260905042427 67 171 0.0 0.0 0.00 0.00 0.00 99 1014.2
20260905041922 67 171 0.0 0.0 0.00 0.00 0.00 99 1014.2
20260905041418 68 171 0.0 0.0 0.00 0.00 0.00 99 1014.2
20260905040913 68 172 0.0 0.0 0.00 0.00 0.00 99 1014.2
20260905040413 68 172 0.0 0.0 0.00 0.00 0.00 99 1014.2